Time,TemperatureF,DewpointF,PressureIn,WindDirection,WindDirectionDegrees,WindSpeedMPH,WindSpeedGustMPH,Humidity,HourlyPrecipIn,Conditions,Clouds,dailyrainin,SoftwareType,DateUTC
2013-01-27 00:03:00,57.0,57.0,30.24,North,349,3.0,3.0,100,99.99,,,-99.99,,2013-01-27 05:03:00,
2013-01-27 00:12:00,57.0,57.0,30.24,North,349,3.0,3.0,100,99.99,,,-99.99,,2013-01-27 05:12:00,
2013-01-27 00:22:00,57.0,57.0,30.24,NNW,345,3.0,3.0,100,99.99,,,-99.99,,2013-01-27 05:22:00,
2013-01-27 00:32:00,57.0,57.0,30.23,North,359,3.0,4.0,100,99.99,,,-99.99,,2013-01-27 05:32:00,
2013-01-27 00:41:00,57.0,57.0,30.23,North,359,3.0,4.0,100,99.99,,,-99.99,,2013-01-27 05:41:00,
2013-01-27 00:52:00,57.0,57.0,30.23,NNE,17,3.0,4.0,100,99.99,,,-99.99,,2013-01-27 05:52:00,
2013-01-27 01:02:00,58.0,58.0,30.23,NNE,28,2.0,3.0,100,99.99,,,-99.99,,2013-01-27 06:02:00,
2013-01-27 01:11:00,58.0,58.0,30.23,NNE,28,2.0,3.0,100,99.99,,,-99.99,,2013-01-27 06:11:00,
2013-01-27 01:21:00,57.0,57.0,30.23,North,0,0.0,0.0,100,99.99,,,-99.99,,2013-01-27 06:21:00,
2013-01-27 01:32:00,56.0,56.0,30.23,SSE,148,1.0,3.0,100,99.99,,,-99.99,,2013-01-27 06:32:00,
2013-01-27 01:42:00,56.0,56.0,30.23,SSE,148,1.0,3.0,100,99.99,,,-99.99,,2013-01-27 06:42:00,
2013-01-27 01:52:00,56.0,56.0,30.24,ESE,104,1.0,2.0,100,99.99,,,-99.99,,2013-01-27 06:52:00,
2013-01-27 02:01:00,56.0,56.0,30.24,ESE,108,1.0,3.0,100,99.99,,,-99.99,,2013-01-27 07:01:00,
2013-01-27 02:14:00,56.0,56.0,30.24,ESE,108,1.0,3.0,100,99.99,,,-99.99,,2013-01-27 07:14:00,
2013-01-27 02:21:00,56.0,56.0,30.24,ENE,60,2.0,5.0,100,99.99,,,-99.99,,2013-01-27 07:21:00,
2013-01-27 02:32:00,54.0,54.0,30.24,North,0,0.0,0.0,100,99.99,,,-99.99,,2013-01-27 07:32:00,
2013-01-27 02:41:00,54.0,54.0,30.24,North,0,0.0,0.0,100,99.99,,,-99.99,,2013-01-27 07:41:00,
2013-01-27 02:52:00,54.0,54.0,30.24,North,0,0.0,0.0,100,99.99,,,-99.99,,2013-01-27 07:52:00,
2013-01-27 03:01:00,54.0,54.0,30.24,NE,37,3.0,4.0,100,99.99,,,-99.99,,2013-01-27 08:01:00,
2013-01-27 03:11:00,54.0,54.0,30.24,NE,37,3.0,4.0,100,99.99,,,-99.99,,2013-01-27 08:11:00,
2013-01-27 03:22:00,54.0,54.0,30.23,NNE,28,0.0,2.0,100,99.99,,,-99.99,,2013-01-27 08:22:00,
2013-01-27 03:32:00,55.0,55.0,30.23,North,0,0.0,0.0,100,99.99,,,-99.99,,2013-01-27 08:32:00,
2013-01-27 03:42:00,55.0,55.0,30.23,North,0,0.0,0.0,100,99.99,,,-99.99,,2013-01-27 08:42:00,
2013-01-27 03:52:00,56.0,56.0,30.24,NE,51,2.0,4.0,100,99.99,,,-99.99,,2013-01-27 08:52:00,
2013-01-27 04:02:00,56.0,56.0,30.23,NE,53,3.0,4.0,100,99.99,,,-99.99,,2013-01-27 09:02:00,
2013-01-27 04:11:00,56.0,56.0,30.23,NE,53,3.0,4.0,100,99.99,,,-99.99,,2013-01-27 09:11:00,
2013-01-27 04:21:00,54.0,54.0,30.23,NE,46,2.0,5.0,100,99.99,,,-99.99,,2013-01-27 09:21:00,
2013-01-27 04:32:00,53.0,53.0,30.23,North,0,0.0,0.0,100,99.99,,,-99.99,,2013-01-27 09:32:00,
2013-01-27 04:41:00,53.0,53.0,30.23,North,0,0.0,0.0,100,99.99,,,-99.99,,2013-01-27 09:41:00,
2013-01-27 04:51:00,53.0,53.0,30.23,North,0,0.0,0.0,100,99.99,,,-99.99,,2013-01-27 09:51:00,
2013-01-27 05:01:00,52.0,52.0,30.23,NE,55,1.0,4.0,100,99.99,,,-99.99,,2013-01-27 10:01:00,
2013-01-27 05:11:00,55.0,55.0,30.23,NE,48,4.0,5.0,100,99.99,,,-99.99,,2013-01-27 10:11:00,
2013-01-27 05:21:00,55.0,55.0,30.23,NE,48,4.0,5.0,100,99.99,,,-99.99,,2013-01-27 10:21:00,
2013-01-27 05:32:00,56.0,56.0,30.23,NE,37,5.0,6.0,100,99.99,,,-99.99,,2013-01-27 10:32:00,
2013-01-27 05:42:00,56.0,56.0,30.23,NE,37,5.0,6.0,100,99.99,,,-99.99,,2013-01-27 10:42:00,
2013-01-27 05:52:00,56.0,56.0,30.23,NNE,25,4.0,6.0,100,99.99,,,-99.99,,2013-01-27 10:52:00,
2013-01-27 06:01:00,57.0,57.0,30.24,NE,39,3.0,4.0,100,99.99,,,-99.99,,2013-01-27 11:01:00,
2013-01-27 06:11:00,57.0,57.0,30.25,NNE,27,1.0,3.0,100,99.99,,,-99.99,,2013-01-27 11:11:00,
2013-01-27 06:21:00,57.0,57.0,30.25,NNE,27,1.0,3.0,100,99.99,,,-99.99,,2013-01-27 11:21:00,
2013-01-27 06:32:00,57.0,57.0,30.25,NE,44,1.0,4.0,100,99.99,,,-99.99,,2013-01-27 11:32:00,
2013-01-27 06:42:00,57.0,57.0,30.25,NE,44,1.0,4.0,100,99.99,,,-99.99,,2013-01-27 11:42:00,
2013-01-27 06:52:00,57.0,57.0,30.26,NE,55,3.0,5.0,100,99.99,,,-99.99,,2013-01-27 11:52:00,
2013-01-27 07:02:00,57.0,57.0,30.26,NE,53,1.0,4.0,100,99.99,,,-99.99,,2013-01-27 12:02:00,
2013-01-27 07:12:00,57.0,57.0,30.26,NE,53,1.0,4.0,100,99.99,,,-99.99,,2013-01-27 12:12:00,
2013-01-27 07:22:00,57.0,57.0,30.27,East,82,2.0,5.0,100,99.99,,,-99.99,,2013-01-27 12:22:00,
2013-01-27 07:32:00,56.0,56.0,30.27,ENE,69,1.0,4.0,100,99.99,,,-99.99,,2013-01-27 12:32:00,
2013-01-27 07:42:00,56.0,56.0,30.27,ENE,69,1.0,4.0,100,99.99,,,-99.99,,2013-01-27 12:42:00,
2013-01-27 07:52:00,56.0,56.0,30.27,NNE,30,2.0,4.0,100,99.99,,,-99.99,,2013-01-27 12:52:00,
2013-01-27 08:02:00,56.0,56.0,30.27,ENE,69,3.0,6.0,100,99.99,,,-99.99,,2013-01-27 13:02:00,
2013-01-27 08:11:00,56.0,56.0,30.27,ENE,69,3.0,6.0,100,99.99,,,-99.99,,2013-01-27 13:11:00,
2013-01-27 08:22:00,57.0,57.0,30.27,ENE,63,3.0,6.0,100,99.99,,,-99.99,,2013-01-27 13:22:00,
2013-01-27 08:32:00,58.0,58.0,30.28,NE,51,5.0,7.0,100,99.99,,,-99.99,,2013-01-27 13:32:00,
2013-01-27 08:42:00,59.0,59.0,30.28,NE,48,5.0,8.0,100,99.99,,,-99.99,,2013-01-27 13:42:00,
2013-01-27 08:52:00,59.0,59.0,30.28,NE,48,5.0,8.0,100,99.99,,,-99.99,,2013-01-27 13:52:00,
2013-01-27 09:02:00,60.0,60.0,30.28,NE,56,5.0,9.0,100,99.99,,,-99.99,,2013-01-27 14:02:00,
2013-01-27 09:12:00,60.0,60.0,30.28,NE,56,5.0,9.0,100,99.99,,,-99.99,,2013-01-27 14:12:00,
2013-01-27 09:22:00,61.0,61.0,30.29,ENE,62,8.0,11.0,100,99.99,,,-99.99,,2013-01-27 14:22:00,
2013-01-27 09:33:00,62.0,62.0,30.29,ENE,62,8.0,13.0,100,99.99,,,-99.99,,2013-01-27 14:33:00,
2013-01-27 09:42:00,62.0,62.0,30.29,ENE,62,8.0,13.0,100,99.99,,,-99.99,,2013-01-27 14:42:00,
2013-01-27 09:53:00,63.0,63.0,30.30,ENE,60,8.0,11.0,100,99.99,,,-99.99,,2013-01-27 14:53:00,
2013-01-27 10:02:00,65.0,65.0,30.30,ENE,60,7.0,10.0,99,99.99,,,-99.99,,2013-01-27 15:02:00,
2013-01-27 10:12:00,65.0,65.0,30.30,ENE,60,7.0,10.0,99,99.99,,,-99.99,,2013-01-27 15:12:00,
2013-01-27 10:22:00,67.0,63.0,30.30,ENE,58,7.0,10.0,88,99.99,,,-99.99,,2013-01-27 15:22:00,
2013-01-27 10:32:00,68.0,62.0,30.30,ENE,62,7.0,10.0,82,99.99,,,-99.99,,2013-01-27 15:32:00,
2013-01-27 10:42:00,68.0,62.0,30.30,ENE,62,7.0,10.0,82,99.99,,,-99.99,,2013-01-27 15:42:00,
2013-01-27 10:53:00,70.0,61.0,30.31,ENE,65,7.0,12.0,72,99.99,,,-99.99,,2013-01-27 15:53:00,
2013-01-27 11:02:00,71.0,60.0,30.30,NE,49,7.0,10.0,68,99.99,,,-99.99,,2013-01-27 16:02:00,
2013-01-27 11:12:00,71.0,60.0,30.30,NE,49,7.0,10.0,68,99.99,,,-99.99,,2013-01-27 16:12:00,
2013-01-27 11:22:00,72.0,59.0,30.31,ENE,69,7.0,10.0,63,99.99,,,-99.99,,2013-01-27 16:22:00,
2013-01-27 11:32:00,74.0,59.0,30.30,NE,39,6.0,10.0,60,99.99,,,-99.99,,2013-01-27 16:32:00,
2013-01-27 11:42:00,74.0,59.0,30.30,NE,39,6.0,10.0,60,99.99,,,-99.99,,2013-01-27 16:42:00,
2013-01-27 11:53:00,74.0,58.0,30.30,NE,56,6.0,11.0,57,99.99,,,-99.99,,2013-01-27 16:53:00,
2013-01-27 12:02:00,74.0,58.0,30.30,NE,56,6.0,11.0,57,99.99,,,-99.99,,2013-01-27 17:02:00,
2013-01-27 12:12:00,74.0,58.0,30.30,NE,56,6.0,11.0,57,99.99,,,-99.99,,2013-01-27 17:12:00,
2013-01-27 12:22:00,76.0,58.0,30.29,NE,53,6.0,10.0,53,99.99,,,-99.99,,2013-01-27 17:22:00,
2013-01-27 12:32:00,76.0,58.0,30.28,ENE,68,6.0,9.0,54,99.99,,,-99.99,,2013-01-27 17:32:00,
2013-01-27 12:42:00,76.0,58.0,30.28,ENE,68,6.0,9.0,54,99.99,,,-99.99,,2013-01-27 17:42:00,
2013-01-27 12:53:00,78.0,57.0,30.27,ENE,62,7.0,12.0,49,99.99,,,-99.99,,2013-01-27 17:53:00,
2013-01-27 13:02:00,78.0,57.0,30.26,ENE,73,7.0,12.0,48,99.99,,,-99.99,,2013-01-27 18:02:00,
2013-01-27 13:12:00,78.0,57.0,30.26,ENE,73,7.0,12.0,48,99.99,,,-99.99,,2013-01-27 18:12:00,
2013-01-27 13:22:00,78.0,57.0,30.25,NE,56,7.0,16.0,49,99.99,,,-99.99,,2013-01-27 18:22:00,
2013-01-27 13:32:00,78.0,57.0,30.25,ENE,58,6.0,12.0,48,99.99,,,-99.99,,2013-01-27 18:32:00,
2013-01-27 13:42:00,78.0,57.0,30.25,ENE,58,6.0,12.0,48,99.99,,,-99.99,,2013-01-27 18:42:00,
2013-01-27 13:52:00,79.0,56.0,30.24,SE,138,4.0,9.0,45,99.99,,,-99.99,,2013-01-27 18:52:00,
2013-01-27 14:02:00,79.0,54.0,30.24,East,86,5.0,9.0,42,99.99,,,-99.99,,2013-01-27 19:02:00,
2013-01-27 14:12:00,79.0,54.0,30.24,East,86,5.0,9.0,42,99.99,,,-99.99,,2013-01-27 19:12:00,
2013-01-27 14:22:00,79.0,55.0,30.24,ENE,76,6.0,13.0,43,99.99,,,-99.99,,2013-01-27 19:22:00,
2013-01-27 14:32:00,78.0,55.0,30.23,ENE,65,10.0,16.0,45,99.99,,,-99.99,,2013-01-27 19:32:00,
2013-01-27 14:42:00,78.0,55.0,30.23,ENE,65,10.0,16.0,45,99.99,,,-99.99,,2013-01-27 19:42:00,
2013-01-27 14:52:00,78.0,54.0,30.23,East,83,9.0,13.0,43,99.99,,,-99.99,,2013-01-27 19:52:00,
2013-01-27 15:02:00,79.0,54.0,30.23,ENE,58,9.0,15.0,42,99.99,,,-99.99,,2013-01-27 20:02:00,
2013-01-27 15:12:00,79.0,54.0,30.23,ENE,58,9.0,15.0,42,99.99,,,-99.99,,2013-01-27 20:12:00,
2013-01-27 15:22:00,79.0,55.0,30.22,NE,44,8.0,13.0,43,99.99,,,-99.99,,2013-01-27 20:22:00,
2013-01-27 15:33:00,78.0,55.0,30.22,ENE,58,9.0,13.0,45,99.99,,,-99.99,,2013-01-27 20:33:00,
2013-01-27 15:42:00,78.0,55.0,30.22,ENE,58,9.0,13.0,45,99.99,,,-99.99,,2013-01-27 20:42:00,
2013-01-27 15:52:00,78.0,55.0,30.22,ENE,70,6.0,13.0,45,99.99,,,-99.99,,2013-01-27 20:52:00,
2013-01-27 16:02:00,79.0,55.0,30.22,ENE,60,6.0,13.0,43,99.99,,,-99.99,,2013-01-27 21:02:00,
2013-01-27 16:12:00,79.0,55.0,30.22,ENE,60,6.0,13.0,43,99.99,,,-99.99,,2013-01-27 21:12:00,
2013-01-27 16:22:00,79.0,53.0,30.22,ENE,72,7.0,14.0,41,99.99,,,-99.99,,2013-01-27 21:22:00,
2013-01-27 16:33:00,78.0,54.0,30.22,ENE,66,9.0,15.0,43,99.99,,,-99.99,,2013-01-27 21:33:00,
2013-01-27 16:42:00,78.0,54.0,30.22,ENE,66,9.0,15.0,43,99.99,,,-99.99,,2013-01-27 21:42:00,
2013-01-27 16:52:00,79.0,55.0,30.22,ESE,105,6.0,11.0,43,99.99,,,-99.99,,2013-01-27 21:52:00,
2013-01-27 17:02:00,79.0,56.0,30.22,ENE,62,6.0,13.0,45,99.99,,,-99.99,,2013-01-27 22:02:00,
2013-01-27 17:12:00,79.0,56.0,30.22,ENE,62,6.0,13.0,45,99.99,,,-99.99,,2013-01-27 22:12:00,
2013-01-27 17:22:00,78.0,56.0,30.23,ENE,63,7.0,11.0,46,99.99,,,-99.99,,2013-01-27 22:22:00,
2013-01-27 17:32:00,77.0,55.0,30.23,ENE,76,6.0,10.0,47,99.99,,,-99.99,,2013-01-27 22:32:00,
2013-01-27 17:42:00,77.0,55.0,30.23,ENE,76,6.0,10.0,47,99.99,,,-99.99,,2013-01-27 22:42:00,
2013-01-27 17:52:00,77.0,56.0,30.24,ENE,68,5.0,8.0,49,99.99,,,-99.99,,2013-01-27 22:52:00,
2013-01-27 18:02:00,76.0,57.0,30.24,ENE,68,4.0,8.0,51,99.99,,,-99.99,,2013-01-27 23:02:00,
2013-01-27 18:12:00,76.0,57.0,30.24,ENE,68,4.0,8.0,51,99.99,,,-99.99,,2013-01-27 23:12:00,
2013-01-27 18:22:00,74.0,56.0,30.25,East,80,3.0,5.0,53,99.99,,,-99.99,,2013-01-27 23:22:00,
2013-01-27 18:32:00,72.0,56.0,30.25,East,98,2.0,4.0,58,99.99,,,-99.99,,2013-01-27 23:32:00,
2013-01-27 18:42:00,72.0,56.0,30.25,East,98,2.0,4.0,58,99.99,,,-99.99,,2013-01-27 23:42:00,
2013-01-27 18:53:00,71.0,57.0,30.26,ENE,72,3.0,5.0,61,99.99,,,-99.99,,2013-01-27 23:53:00,
2013-01-27 19:02:00,70.0,58.0,30.26,ENE,66,4.0,7.0,65,99.99,,,-99.99,,2013-01-28 00:02:00,
2013-01-27 19:11:00,70.0,58.0,30.26,ENE,66,4.0,7.0,65,99.99,,,-99.99,,2013-01-28 00:11:00,
2013-01-27 19:21:00,69.0,57.0,30.26,ESE,114,4.0,6.0,66,99.99,,,-99.99,,2013-01-28 00:21:00,
2013-01-27 19:32:00,68.0,57.0,30.27,ENE,65,4.0,6.0,69,99.99,,,-99.99,,2013-01-28 00:32:00,
2013-01-27 19:42:00,68.0,57.0,30.27,ENE,65,4.0,6.0,69,99.99,,,-99.99,,2013-01-28 00:42:00,
2013-01-27 19:51:00,67.0,58.0,30.27,ENE,77,4.0,6.0,73,99.99,,,-99.99,,2013-01-28 00:51:00,
2013-01-27 20:02:00,67.0,58.0,30.27,East,84,4.0,6.0,74,99.99,,,-99.99,,2013-01-28 01:02:00,
2013-01-27 20:11:00,67.0,58.0,30.27,East,84,4.0,6.0,74,99.99,,,-99.99,,2013-01-28 01:11:00,
2013-01-27 20:22:00,66.0,58.0,30.27,East,90,4.0,5.0,76,99.99,,,-99.99,,2013-01-28 01:22:00,
2013-01-27 20:33:00,66.0,58.0,30.28,ESE,115,4.0,5.0,76,99.99,,,-99.99,,2013-01-28 01:33:00,
2013-01-27 20:42:00,66.0,58.0,30.28,ESE,115,4.0,5.0,76,99.99,,,-99.99,,2013-01-28 01:42:00,
2013-01-27 20:52:00,65.0,58.0,30.28,ENE,77,3.0,6.0,79,99.99,,,-99.99,,2013-01-28 01:52:00,
2013-01-27 21:02:00,65.0,58.0,30.28,East,98,3.0,5.0,78,99.99,,,-99.99,,2013-01-28 02:02:00,
2013-01-27 21:11:00,65.0,58.0,30.28,East,98,3.0,5.0,78,99.99,,,-99.99,,2013-01-28 02:11:00,
2013-01-27 21:22:00,65.0,59.0,30.29,East,94,3.0,4.0,80,99.99,,,-99.99,,2013-01-28 02:22:00,
2013-01-27 21:32:00,64.0,59.0,30.29,East,87,3.0,5.0,83,99.99,,,-99.99,,2013-01-28 02:32:00,
2013-01-27 21:42:00,64.0,59.0,30.29,East,87,3.0,5.0,83,99.99,,,-99.99,,2013-01-28 02:42:00,
2013-01-27 21:52:00,64.0,59.0,30.29,SE,124,4.0,5.0,84,99.99,,,-99.99,,2013-01-28 02:52:00,
2013-01-27 22:02:00,63.0,59.0,30.29,ESE,120,3.0,5.0,87,99.99,,,-99.99,,2013-01-28 03:02:00,
2013-01-27 22:12:00,63.0,59.0,30.29,ESE,120,3.0,5.0,87,99.99,,,-99.99,,2013-01-28 03:12:00,
2013-01-27 22:22:00,63.0,60.0,30.29,ESE,105,4.0,5.0,89,99.99,,,-99.99,,2013-01-28 03:22:00,
2013-01-27 22:32:00,63.0,60.0,30.29,ESE,118,3.0,5.0,90,99.99,,,-99.99,,2013-01-28 03:32:00,
2013-01-27 22:42:00,63.0,60.0,30.29,ESE,118,3.0,5.0,90,99.99,,,-99.99,,2013-01-28 03:42:00,
2013-01-27 22:53:00,62.0,59.0,30.29,ESE,104,3.0,4.0,91,99.99,,,-99.99,,2013-01-28 03:53:00,
2013-01-27 23:02:00,62.0,61.0,30.29,ESE,105,4.0,5.0,95,99.99,,,-99.99,,2013-01-28 04:02:00,
2013-01-27 23:12:00,62.0,61.0,30.29,ESE,105,4.0,5.0,95,99.99,,,-99.99,,2013-01-28 04:12:00,
2013-01-27 23:22:00,62.0,61.0,30.29,East,101,3.0,4.0,95,99.99,,,-99.99,,2013-01-28 04:22:00,
2013-01-27 23:32:00,62.0,61.0,30.28,East,96,3.0,3.0,97,99.99,,,-99.99,,2013-01-28 04:32:00,
2013-01-27 23:42:00,62.0,61.0,30.28,East,96,3.0,3.0,97,99.99,,,-99.99,,2013-01-28 04:42:00,
2013-01-27 23:52:00,61.0,60.0,30.28,East,86,2.0,3.0,97,99.99,,,-99.99,,2013-01-28 04:52:00,